KC2NJV-10 Weather Reports


time (UTC)temp
C
wind
direction
speed
KPH
gust
KPH
rain 1hr
cm
rain 24hr
cm
rain mn
cm
humidity
%
barometer
mb
20260502130747 10 40 4.8 0.0 0.00 0.00 0.00 80 299.0
20260502123748 10 250 8.0 0.0 0.03 0.03 0.00 86 299.0
20260502122248 10 250 8.0 0.0 0.03 0.03 0.00 86 299.0
20260502120748 10 250 8.0 0.0 0.03 0.03 0.00 86 299.0
20260502115247 10 0 0.0 0.0 0.00 0.00 0.00 86 298.8
20260502113750 10 0 0.0 0.0 0.00 0.00 0.00 86 298.8
20260502112248 10 0 0.0 0.0 0.00 0.00 0.00 86 298.8
20260502110749 10 0 0.0 0.0 0.00 0.00 0.00 86 298.8
20260502105248 10 210 11.3 0.0 0.00 0.00 0.00 83 298.7
20260502103750 10 210 11.3 0.0 0.00 0.00 0.00 83 298.7
20260502102248 10 210 11.3 0.0 0.00 0.00 0.00 83 298.7
20260502100747 10 210 11.3 0.0 0.00 0.00 0.00 83 298.7
20260502090747 10 190 11.3 0.0 0.00 0.00 0.00 79 298.8
20260502070749 10 230 12.9 0.0 0.00 0.00 0.00 83 298.8
20260502065248 10 220 19.3 0.0 0.00 0.00 0.00 83 299.0
20260502063749 10 220 19.3 0.0 0.00 0.00 0.00 83 299.0
20260502062250 10 220 19.3 0.0 0.00 0.00 0.00 83 299.0
20260502060748 10 220 19.3 0.0 0.00 0.00 0.00 83 299.0
20260502055247 10 200 12.9 0.0 0.00 0.00 0.00 77 298.9
20260502053747 10 200 12.9 0.0 0.00 0.00 0.00 77 298.9
20260502052249 10 200 12.9 0.0 0.00 0.00 0.00 77 298.9
20260502050750 10 200 12.9 0.0 0.00 0.00 0.00 77 298.9
20260502045247 10 200 14.5 0.0 0.00 0.00 0.00 74 299.0
20260502043750 10 200 14.5 0.0 0.00 0.00 0.00 74 299.0
20260502042331 10 200 14.5 0.0 0.00 0.00 0.00 74 299.0
20260502042248 10 200 14.5 0.0 0.00 0.00 0.00 74 299.0
20260502040748 10 200 14.5 0.0 0.00 0.00 0.00 74 299.0
20260502033749 10 210 12.9 0.0 0.00 0.00 0.00 77 299.1
20260502032247 10 210 12.9 0.0 0.00 0.00 0.00 77 299.1
20260502030748 10 210 12.9 0.0 0.00 0.00 0.00 77 299.1
20260502025249 10 210 16.1 0.0 0.00 0.00 0.00 74 299.0
20260502023748 10 210 16.1 0.0 0.00 0.00 0.00 74 299.0
20260502022247 10 210 16.1 0.0 0.00 0.00 0.00 74 299.0
20260502020748 10 210 16.1 0.0 0.00 0.00 0.00 74 299.0
20260502015248 10 220 11.3 0.0 0.00 0.00 0.00 63 298.9
20260502013748 10 220 11.3 0.0 0.00 0.00 0.00 63 298.9
20260502012247 10 220 11.3 0.0 0.00 0.00 0.00 63 298.9
20260502010748 10 220 11.3 0.0 0.00 0.00 0.00 63 298.9
20260502005248 10 200 14.5 0.0 0.00 0.00 0.00 69 298.8
20260502003748 10 200 14.5 0.0 0.00 0.00 0.00 69 298.8
20260502002248 10 200 14.5 0.0 0.00 0.00 0.00 69 298.8
20260502000849 10 200 14.5 0.0 0.00 0.00 0.00 69 298.8
20260502000748 10 200 14.5 0.0 0.00 0.00 0.00 69 298.8
20260501235247 11 200 24.1 0.0 0.00 0.00 0.00 63 298.7
20260501233749 11 200 24.1 0.0 0.00 0.00 0.00 63 298.7
20260501232249 11 200 24.1 0.0 0.00 0.00 0.00 63 298.7
20260501230748 11 200 24.1 0.0 0.00 0.00 0.00 63 298.7
20260501225248 12 220 25.7 0.0 0.00 0.00 0.00 55 298.7
20260501223749 12 220 25.7 0.0 0.00 0.00 0.00 55 298.7
20260501222351 12 220 25.7 0.0 0.00 0.00 0.00 55 298.7
20260501222248 12 220 25.7 0.0 0.00 0.00 0.00 55 298.7
20260501220748 12 220 25.7 0.0 0.00 0.00 0.00 55 298.7
20260501215323 13 210 29.0 45.1 0.00 0.00 0.00 47 298.6
20260501215248 13 210 29.0 45.1 0.00 0.00 0.00 47 298.6
20260501213751 13 210 29.0 45.1 0.00 0.00 0.00 47 298.6
20260501212327 13 210 29.0 45.1 0.00 0.00 0.00 47 298.6
20260501212247 13 210 29.0 45.1 0.00 0.00 0.00 47 298.6
20260501210747 13 210 29.0 45.1 0.00 0.00 0.00 47 298.6
20260501205248 15 200 27.4 33.8 0.00 0.00 0.00 41 298.5
20260501203749 15 200 27.4 33.8 0.00 0.00 0.00 41 298.5
20260501202247 15 200 27.4 33.8 0.00 0.00 0.00 41 298.5
20260501200916 15 200 27.4 33.8 0.00 0.00 0.00 41 298.5
20260501200747 15 200 27.4 33.8 0.00 0.00 0.00 41 298.5
20260501195248 16 210 24.1 35.4 0.00 0.00 0.00 36 298.6
20260501193750 16 210 24.1 35.4 0.00 0.00 0.00 36 298.6
20260501192248 16 210 24.1 35.4 0.00 0.00 0.00 36 298.6
20260501190747 16 210 24.1 35.4 0.00 0.00 0.00 36 298.6
20260501185247 15 230 14.5 0.0 0.00 0.00 0.00 31 298.8
20260501183748 15 230 14.5 0.0 0.00 0.00 0.00 31 298.8
20260501182248 15 230 14.5 0.0 0.00 0.00 0.00 31 298.8
20260501180749 15 230 14.5 0.0 0.00 0.00 0.00 31 298.8
20260501175247 13 0 0.0 0.0 0.00 0.00 0.00 32 298.9
20260501173749 13 0 0.0 0.0 0.00 0.00 0.00 32 298.9
20260501172248 13 0 0.0 0.0 0.00 0.00 0.00 32 298.9
20260501170748 13 0 0.0 0.0 0.00 0.00 0.00 32 298.9
20260501165250 13 280 14.5 0.0 0.00 0.00 0.00 35 299.1
20260501163748 13 280 14.5 0.0 0.00 0.00 0.00 35 299.1
20260501162248 13 280 14.5 0.0 0.00 0.00 0.00 35 299.1
20260501160950 13 280 14.5 0.0 0.00 0.00 0.00 35 299.1
20260501160750 13 280 14.5 0.0 0.00 0.00 0.00 35 299.1
20260501155248 12 350 11.3 29.0 0.00 0.00 0.00 41 299.1
20260501153749 12 350 11.3 29.0 0.00 0.00 0.00 41 299.1
20260501152247 12 350 11.3 29.0 0.00 0.00 0.00 41 299.1
20260501150828 12 350 11.3 29.0 0.00 0.00 0.00 41 299.1
20260501150749 12 350 11.3 29.0 0.00 0.00 0.00 41 299.1
20260501145248 11 360 14.5 0.0 0.00 0.00 0.00 46 299.1
20260501143748 11 360 14.5 0.0 0.00 0.00 0.00 46 299.1
20260501142247 11 360 14.5 0.0 0.00 0.00 0.00 46 299.1